FW2545 Weather Reports


Display with metric or nautical units.
time (UTC)temp
F
wind
direction
speed
MPH
gust
MPH
rain 1hr
in
rain 24hr
in
rain mn
in
humidity
%
barometer
mb
20260504194531 82 314 6.0 12.0 0.00 0.00 0.00 38 1012.1
20260504193030 81 310 6.0 14.0 0.00 0.00 0.00 39 1012.1
20260504191646 81 316 6.0 14.0 0.00 0.00 0.00 39 1012.2
20260504190031 81 321 6.0 13.0 0.00 0.00 0.00 42 1012.3
20260504184605 79 327 4.0 12.0 0.00 0.00 0.00 44 1012.4
20260504181529 74 332 3.0 8.0 0.00 0.00 0.00 50 1012.5
20260504174531 72 325 3.0 10.0 0.00 0.00 0.00 52 1012.5
20260504173029 71 325 3.0 8.0 0.00 0.00 0.00 53 1012.5
20260504171529 71 309 2.0 6.0 0.00 0.00 0.00 54 1012.4
20260504081526 53 247 1.0 7.0 0.00 0.00 0.00 70 1012.4
20260504044531 59 173 2.0 4.0 0.00 0.00 0.00 64 1012.2
20260504043032 59 207 1.0 4.0 0.00 0.00 0.00 64 1012.2
20260504041530 59 211 1.0 4.0 0.00 0.00 0.00 66 1011.9
20260504040037 60 286 0.0 3.0 0.00 0.00 0.00 65 1011.7
20260504033146 63 337 0.0 3.0 0.00 0.00 0.00 60 1011.4
20260504030030 68 22 0.0 2.0 0.00 0.00 0.00 50 1011.2
20260504024530 71 22 2.0 4.0 0.00 0.00 0.00 45 1011.2
20260504023103 74 17 2.0 4.0 0.00 0.00 0.00 41 1011.2
20260504021606 76 18 3.0 5.0 0.00 0.00 0.00 39 1011.3
20260504020030 77 22 3.0 4.0 0.00 0.00 0.00 39 1011.4
20260504014605 78 21 2.0 4.0 0.00 0.00 0.00 37 1011.5
20260504013028 79 17 2.0 4.0 0.00 0.00 0.00 34 1011.6
20260504011531 80 24 3.0 7.0 0.00 0.00 0.00 33 1011.7
20260504004530 82 16 2.0 7.0 0.00 0.00 0.00 31 1012.0
20260504003031 82 47 1.0 6.0 0.00 0.00 0.00 30 1012.1
20260504001530 82 22 3.0 9.0 0.00 0.00 0.00 29 1012.2
20260504000031 83 15 4.0 8.0 0.00 0.00 0.00 29 1012.3
20260503234531 84 1 4.0 8.0 0.00 0.00 0.00 28 1012.5
20260503233027 84 71 1.0 11.0 0.00 0.00 0.00 29 1012.7
20260503231648 85 36 2.0 8.0 0.00 0.00 0.00 29 1012.9
20260503230032 85 59 3.0 9.0 0.00 0.00 0.00 28 1013.1
20260503224530 86 52 4.0 11.0 0.00 0.00 0.00 27 1013.4
20260503223032 86 71 4.0 13.0 0.00 0.00 0.00 27 1013.7
20260503221532 86 71 3.0 10.0 0.00 0.00 0.00 27 1013.9
20260503220030 87 49 4.0 10.0 0.00 0.00 0.00 28 1014.2
20260503214529 86 48 4.0 10.0 0.00 0.00 0.00 28 1014.3
20260503213107 86 76 5.0 13.0 0.00 0.00 0.00 29 1014.5
20260503211529 86 80 5.0 13.0 0.00 0.00 0.00 30 1014.7
20260503210105 86 36 4.0 13.0 0.00 0.00 0.00 31 1014.9
20260503201531 85 43 5.0 12.0 0.00 0.00 0.00 33 1015.3
20260503200029 85 40 6.0 12.0 0.00 0.00 0.00 34 1015.6